owner,sensor,date,latitude,longitude,vertical_datum,wind_speed,wind_to_direction,wind_speed_of_gust,qcFlag 
TABS,ioos:station:wmo:42043:1,2013-03-01T00:00:00Z,28.9818,-94.9186,4.0,6.120106208,330.7542989,7.97,'11111222,11111222,11111222' 
TABS,ioos:station:wmo:42043:1,2013-03-01T00:30:00Z,28.9818,-94.9186,4.0,5.178889842,324.1921164,7.69,'11111222,11111222,11111222' 
TABS,ioos:station:wmo:42043:1,2013-03-01T01:00:00Z,28.9818,-94.9186,4.0,5.544168107,315.7306669,7.26,'11111222,11111222,11111222' 
TABS,ioos:station:wmo:42043:1,2013-03-01T01:30:00Z,28.9818,-94.9186,4.0,6.168443888,322.442612,8.63,'11111222,11111222,11111222' 
TABS,ioos:station:wmo:42043:1,2013-03-01T02:00:00Z,28.9818,-94.9186,4.0,6.279888534,321.7247917,7.81,'11111222,11111222,11111222' 
TABS,ioos:station:wmo:42043:1,2013-03-01T02:30:00Z,28.9818,-94.9186,4.0,5.318646444,313.7810224,7.56,'11111222,11111222,11111222' 
TABS,ioos:station:wmo:42043:1,2013-03-01T03:00:00Z,28.9818,-94.9186,4.0,5.326096131,323.4742212,7.58,'11111222,11111222,11111222' 
TABS,ioos:station:wmo:42043:1,2013-03-01T03:30:00Z,28.9818,-94.9186,4.0,5.685578247,315.7124904,7.21,'11111222,11111222,11111222' 
TABS,ioos:station:wmo:42043:1,2013-03-01T04:00:00Z,28.9818,-94.9186,4.0,6.012803007,316.6172245,7.67,'11111222,11111222,11111222' 
TABS,ioos:station:wmo:42043:1,2013-03-01T04:30:00Z,28.9818,-94.9186,4.0,6.00553911,316.5516941,8.01,'11111222,11111222,11111222' 
TABS,ioos:station:wmo:42043:1,2013-03-01T05:00:00Z,28.9818,-94.9186,4.0,6.779970501,332.9812824,8.21,'11111222,11111222,11111222' 
TABS,ioos:station:wmo:42043:1,2013-03-01T05:30:00Z,28.9818,-94.9186,4.0,8.24792095,340.8179737,9.78,'11111222,11111222,11111222' 
TABS,ioos:station:wmo:42043:1,2013-03-01T06:00:00Z,28.9818,-94.9186,4.0,7.35663646,348.1552822,9.05,'11111222,11111222,11111222' 
TABS,ioos:station:wmo:42043:1,2013-03-01T06:30:00Z,28.9818,-94.9186,4.0,6.842667608,348.2793456,8.68,'11111222,11111222,11111222' 
TABS,ioos:station:wmo:42043:1,2013-03-01T07:00:00Z,28.9818,-94.9186,4.0,5.940143096,346.6654096,7.64,'11111222,11111222,11111222' 
TABS,ioos:station:wmo:42043:1,2013-03-01T07:30:00Z,28.9818,-94.9186,4.0,4.788193814,340.7323769,6.21,'11111222,11111222,11111222' 
TABS,ioos:station:wmo:42043:1,2013-03-01T08:00:00Z,28.9818,-94.9186,4.0,3.874854836,330.1265947,5.21,'11111222,11111222,11111222' 
TABS,ioos:station:wmo:42043:1,2013-03-01T08:30:00Z,28.9818,-94.9186,4.0,3.900410235,310.633066,4.76,'11111222,11111222,11111222' 
TABS,ioos:station:wmo:42043:1,2013-03-01T09:00:00Z,28.9818,-94.9186,4.0,4.10670184,317.960824,5.21,'11111222,11111222,11111222' 
TABS,ioos:station:wmo:42043:1,2013-03-01T09:30:00Z,28.9818,-94.9186,4.0,4.105995616,305.0833918,5.15,'11111222,11111222,11111222' 
TABS,ioos:station:wmo:42043:1,2013-03-01T10:00:00Z,28.9818,-94.9186,4.0,4.63876061,307.907394,5.47,'11111222,11111222,11111222' 
TABS,ioos:station:wmo:42043:1,2013-03-01T10:30:00Z,28.9818,-94.9186,4.0,5.414545226,308.6266659,6.53,'11111222,11111222,11111222' 
TABS,ioos:station:wmo:42043:1,2013-03-01T11:00:00Z,28.9818,-94.9186,4.0,6.076923564,304.1345375,7.55,'11111222,11111222,11111222' 
TABS,ioos:station:wmo:42043:1,2013-03-01T11:30:00Z,28.9818,-94.9186,4.0,7.263841959,303.8868802,8.58,'11111222,11111222,11111222' 
TABS,ioos:station:wmo:42043:1,2013-03-01T12:00:00Z,28.9818,-94.9186,4.0,7.457144226,319.0235692,9.41,'11111222,11111222,11111222' 
TABS,ioos:station:wmo:42043:1,2013-03-01T12:30:00Z,28.9818,-94.9186,4.0,6.574595045,336.5151779,8.46,'11111222,11111222,11111222' 
TABS,ioos:station:wmo:42043:1,2013-03-01T13:00:00Z,28.9818,-94.9186,4.0,6.061188002,358.8653706,7.67,'11111222,11111222,11111222' 
TABS,ioos:station:wmo:42043:1,2013-03-01T13:30:00Z,28.9818,-94.9186,4.0,6.350338574,5.602637119,7.73,'11111222,11111222,11111222' 
TABS,ioos:station:wmo:42043:1,2013-03-01T14:00:00Z,28.9818,-94.9186,4.0,6.492310837,6.544627703,7.97,'11111222,11111222,11111222' 
TABS,ioos:station:wmo:42043:1,2013-03-01T14:30:00Z,28.9818,-94.9186,4.0,7.093412437,358.2224977,8.5,'11111222,11111222,11111222' 
TABS,ioos:station:wmo:42043:1,2013-03-01T15:00:00Z,28.9818,-94.9186,4.0,6.633950558,3.716189255,8.21,'11111222,11111222,11111222' 
TABS,ioos:station:wmo:42043:1,2013-03-01T15:30:00Z,28.9818,-94.9186,4.0,6.036041749,2.563553758,7.32,'11111222,11111222,11111222' 
TABS,ioos:station:wmo:42043:1,2013-03-01T16:00:00Z,28.9818,-94.9186,4.0,7.058363833,352.0189432,8.39,'11111222,11111222,11111222' 
TABS,ioos:station:wmo:42043:1,2013-03-01T16:30:00Z,28.9818,-94.9186,4.0,6.463574862,345.9420796,8.31,'11111222,11111222,11111222' 
TABS,ioos:station:wmo:42043:1,2013-03-01T17:00:00Z,28.9818,-94.9186,4.0,6.588300236,342.692497,8.92,'11111222,11111222,11111222' 
TABS,ioos:station:wmo:42043:1,2013-03-01T17:30:00Z,28.9818,-94.9186,4.0,6.443236764,336.9763974,8.46,'11111222,11111222,11111222' 
TABS,ioos:station:wmo:42043:1,2013-03-01T18:00:00Z,28.9818,-94.9186,4.0,6.983530626,331.8935854,8.93,'11111222,11111222,11111222' 
TABS,ioos:station:wmo:42043:1,2013-03-01T18:30:00Z,28.9818,-94.9186,4.0,6.617741307,325.9015822,8.33,'11111222,11111222,11111222' 
TABS,ioos:station:wmo:42043:1,2013-03-01T19:00:00Z,28.9818,-94.9186,4.0,6.071515462,320.2788896,7.99,'11111222,11111222,11111222' 
TABS,ioos:station:wmo:42043:1,2013-03-01T19:30:00Z,28.9818,-94.9186,4.0,6.166117093,314.6056649,7.81,'11111222,11111222,11111222' 
TABS,ioos:station:wmo:42043:1,2013-03-01T20:00:00Z,28.9818,-94.9186,4.0,5.722630514,319.3225722,7.33,'11111222,11111222,11111222' 
TABS,ioos:station:wmo:42043:1,2013-03-01T20:30:00Z,28.9818,-94.9186,4.0,5.11097838,319.0459683,6.9,'11111222,11111222,11111222' 
TABS,ioos:station:wmo:42043:1,2013-03-01T21:00:00Z,28.9818,-94.9186,4.0,5.673667244,318.3579612,7.85,'11111222,11111222,11111222' 
TABS,ioos:station:wmo:42043:1,2013-03-01T21:30:00Z,28.9818,-94.9186,4.0,4.668040274,321.4359158,6.41,'11111222,11111222,11111222' 
TABS,ioos:station:wmo:42043:1,2013-03-01T22:00:00Z,28.9818,-94.9186,4.0,5.318646444,316.2187672,6.68,'11111222,11111222,11111222' 
TABS,ioos:station:wmo:42043:1,2013-03-01T22:30:00Z,28.9818,-94.9186,4.0,4.097181958,309.7517634,5.47,'11111222,11111222,11111222' 
TABS,ioos:station:wmo:42043:1,2013-03-01T23:00:00Z,28.9818,-94.9186,4.0,5.281533868,309.9304865,7.32,'11111222,11111222,11111222' 
TABS,ioos:station:wmo:42043:1,2013-03-01T23:30:00Z,28.9818,-94.9186,4.0,5.255130826,318.2395875,6.34,'11111222,11111222,11111222' 
TABS,ioos:station:wmo:42043:1,2013-03-02T00:00:00Z,28.9818,-94.9186,4.0,5.901228686,309.7060281,7.4,'11111222,11111222,11111222' 
TABS,ioos:station:wmo:42043:1,2013-03-02T00:30:00Z,28.9818,-94.9186,4.0,5.327109911,321.172099,6.57,'11111222,11111222,11111222' 
TABS,ioos:station:wmo:42043:1,2013-03-02T01:00:00Z,28.9818,-94.9186,4.0,5.615131343,330.5587292,7.1,'11111222,11111222,11111222' 
TABS,ioos:station:wmo:42043:1,2013-03-02T01:30:00Z,28.9818,-94.9186,4.0,4.367436319,342.270153,5.71,'11111222,11111222,11111222' 
TABS,ioos:station:wmo:42043:1,2013-03-02T02:00:00Z,28.9818,-94.9186,4.0,2.927541631,329.4053165,4.18,'11111222,11111222,11111222' 
TABS,ioos:station:wmo:42043:1,2013-03-02T02:30:00Z,28.9818,-94.9186,4.0,6.321550443,22.50805022,8.12,'11111222,11111222,11111222' 
TABS,ioos:station:wmo:42043:1,2013-03-02T03:00:00Z,28.9818,-94.9186,4.0,6.217861369,352.8862193,8.23,'11111222,11111222,11111222' 
TABS,ioos:station:wmo:42043:1,2013-03-02T03:30:00Z,28.9818,-94.9186,4.0,4.871550061,340.0770198,9.32,'11111222,11111222,11111222' 
TABS,ioos:station:wmo:42043:1,2013-03-02T04:00:00Z,28.9818,-94.9186,4.0,3.650753347,355.6010945,4.84,'11111222,11111222,11111222' 
TABS,ioos:station:wmo:42043:1,2013-03-02T04:30:00Z,28.9818,-94.9186,4.0,3.987994483,15.11626451,6.9,'11111222,11111222,11111222' 
TABS,ioos:station:wmo:42043:1,2013-03-02T05:00:00Z,28.9818,-94.9186,4.0,5.870689908,350.4893554,8.81,'11111222,11111222,11111222' 
TABS,ioos:station:wmo:42043:1,2013-03-02T05:30:00Z,28.9818,-94.9186,4.0,6.654562345,296.4109689,10.84,'11111222,11111222,11111222' 
TABS,ioos:station:wmo:42043:1,2013-03-02T06:00:00Z,28.9818,-94.9186,4.0,3.415289153,3.188917999,5.9,'11111222,11111222,11111222' 
TABS,ioos:station:wmo:42043:1,2013-03-02T06:30:00Z,28.9818,-94.9186,4.0,5.887384818,20.06599489,8.11,'11111222,11111222,11111222' 
TABS,ioos:station:wmo:42043:1,2013-03-02T07:00:00Z,28.9818,-94.9186,4.0,7.623450662,351.0193694,9.6,'11111222,11111222,11111222' 
TABS,ioos:station:wmo:42043:1,2013-03-02T07:30:00Z,28.9818,-94.9186,4.0,3.92458915,13.25699739,7.01,'11111222,11111222,11111222' 
TABS,ioos:station:wmo:42043:1,2013-03-02T08:00:00Z,28.9818,-94.9186,4.0,6.902941402,324.0762415,8.7,'11111222,11111222,11111222' 
TABS,ioos:station:wmo:42043:1,2013-03-02T08:30:00Z,28.9818,-94.9186,4.0,5.47982664,347.0287139,6.8,'11111222,11111222,11111222' 
TABS,ioos:station:wmo:42043:1,2013-03-02T09:00:00Z,28.9818,-94.9186,4.0,4.956167874,355.3705654,6.31,'11111222,11111222,11111222' 
TABS,ioos:station:wmo:42043:1,2013-03-02T09:30:00Z,28.9818,-94.9186,4.0,7.412428752,7.44117763,9.39,'11111222,11111222,11111222' 
TABS,ioos:station:wmo:42043:1,2013-03-02T10:00:00Z,28.9818,-94.9186,4.0,7.725554996,3.636256298,9.55,'11111222,11111222,11111222' 
TABS,ioos:station:wmo:42043:1,2013-03-02T10:30:00Z,28.9818,-94.9186,4.0,8.459012945,4.746545271,10.3,'11111222,11111222,11111222' 
TABS,ioos:station:wmo:42043:1,2013-03-02T11:00:00Z,28.9818,-94.9186,4.0,10.23770482,346.3843638,12.46,'11111222,11111222,11111222' 
TABS,ioos:station:wmo:42043:1,2013-03-02T11:30:00Z,28.9818,-94.9186,4.0,9.915649248,351.2404682,12.66,'11111222,11111222,11111222' 
TABS,ioos:station:wmo:42043:1,2013-03-02T12:00:00Z,28.9818,-94.9186,4.0,10.11820636,348.0790789,12.6,'11111222,11111222,11111222' 
TABS,ioos:station:wmo:42043:1,2013-03-02T12:30:00Z,28.9818,-94.9186,4.0,9.403111187,351.9300265,12.03,'11111222,11111222,11111222' 
TABS,ioos:station:wmo:42043:1,2013-03-02T13:00:00Z,28.9818,-94.9186,4.0,9.954039381,347.820637,12.56,'11111222,11111222,11111222' 
TABS,ioos:station:wmo:42043:1,2013-03-02T13:30:00Z,28.9818,-94.9186,4.0,10.54336284,352.3692532,13.09,'11111222,11111222,11111222' 
TABS,ioos:station:wmo:42043:1,2013-03-02T14:00:00Z,28.9818,-94.9186,4.0,10.28250942,352.7365618,13.34,'11111222,11111222,11111222' 
TABS,ioos:station:wmo:42043:1,2013-03-02T14:30:00Z,28.9818,-94.9186,4.0,9.621543535,352.5350233,12.63,'11111222,11111222,11111222' 
TABS,ioos:station:wmo:42043:1,2013-03-02T15:00:00Z,28.9818,-94.9186,4.0,9.293035026,351.459898,12.13,'11111222,11111222,11111222' 
TABS,ioos:station:wmo:42043:1,2013-03-02T15:30:00Z,28.9818,-94.9186,4.0,8.643668203,347.2337486,11.22,'11111222,11111222,11111222' 
TABS,ioos:station:wmo:42043:1,2013-03-02T16:00:00Z,28.9818,-94.9186,4.0,8.064366063,340.8908485,10.4,'11111222,11111222,11111222' 
TABS,ioos:station:wmo:42043:1,2013-03-02T16:30:00Z,28.9818,-94.9186,4.0,7.990750903,335.1345644,11.93,'11111222,11111222,11111222' 
TABS,ioos:station:wmo:42043:1,2013-03-02T17:00:00Z,28.9818,-94.9186,4.0,7.309240727,327.2881892,10.34,'11111222,11111222,11111222' 
TABS,ioos:station:wmo:42043:1,2013-03-02T17:30:00Z,28.9818,-94.9186,4.0,7.601697179,320.5513793,10.5,'11111222,11111222,11111222' 
TABS,ioos:station:wmo:42043:1,2013-03-02T18:00:00Z,28.9818,-94.9186,4.0,9.198141117,312.9733559,12.57,'11111222,11111222,11111222' 
TABS,ioos:station:wmo:42043:1,2013-03-02T18:30:00Z,28.9818,-94.9186,4.0,9.082317986,307.3492617,11.86,'11111222,11111222,11111222' 
TABS,ioos:station:wmo:42043:1,2013-03-02T19:00:00Z,28.9818,-94.9186,4.0,9.14183789,304.211476,11.63,'11111222,11111222,11111222' 
TABS,ioos:station:wmo:42043:1,2013-03-02T19:30:00Z,28.9818,-94.9186,4.0,9.975073935,312.1963151,12.6,'11111222,11111222,11111222' 
TABS,ioos:station:wmo:42043:1,2013-03-02T20:00:00Z,28.9818,-94.9186,4.0,9.076618313,305.4935663,12.79,'11111222,11111222,11111222' 
TABS,ioos:station:wmo:42043:1,2013-03-02T20:30:00Z,28.9818,-94.9186,4.0,8.71909399,304.9111873,12.05,'11111222,11111222,11111222' 
TABS,ioos:station:wmo:42043:1,2013-03-02T21:00:00Z,28.9818,-94.9186,4.0,9.723476744,321.5977439,12.87,'11111222,11111222,11111222' 
TABS,ioos:station:wmo:42043:1,2013-03-02T21:30:00Z,28.9818,-94.9186,4.0,10.1957295,329.3348689,12.77,'11111222,11111222,11111222' 
TABS,ioos:station:wmo:42043:1,2013-03-02T22:00:00Z,28.9818,-94.9186,4.0,9.891703594,318.6886352,13.59,'11111222,11111222,11111222' 
TABS,ioos:station:wmo:42043:1,2013-03-02T22:30:00Z,28.9818,-94.9186,4.0,9.403111187,331.1997412,12.17,'11111222,11111222,11111222' 
TABS,ioos:station:wmo:42043:1,2013-03-02T23:00:00Z,28.9818,-94.9186,4.0,9.14958469,328.7246607,12.0,'11111222,11111222,11111222' 
TABS,ioos:station:wmo:42043:1,2013-03-02T23:30:00Z,28.9818,-94.9186,4.0,10.09098608,337.7555953,13.18,'11111222,11111222,11111222' 
TABS,ioos:station:wmo:42043:1,2013-03-03T00:00:00Z,28.9818,-94.9186,4.0,10.03634396,339.6509244,13.81,'11111222,11111222,11111222' 
TABS,ioos:station:wmo:42043:1,2013-03-03T00:30:00Z,28.9818,-94.9186,4.0,8.889662536,335.0491473,11.4,'11111222,11111222,11111222' 
TABS,ioos:station:wmo:42043:1,2013-03-03T01:00:00Z,28.9818,-94.9186,4.0,8.839785065,343.3688747,11.46,'11111222,11111222,11111222' 
TABS,ioos:station:wmo:42043:1,2013-03-03T01:30:00Z,28.9818,-94.9186,4.0,8.681226872,343.8821819,10.97,'11111222,11111222,11111222' 
TABS,ioos:station:wmo:42043:1,2013-03-03T02:00:00Z,28.9818,-94.9186,4.0,8.923413024,346.5865024,11.67,'11111222,11111222,11111222' 
TABS,ioos:station:wmo:42043:1,2013-03-03T02:30:00Z,28.9818,-94.9186,4.0,8.243233589,349.3033038,10.23,'11111222,11111222,11111222' 
TABS,ioos:station:wmo:42043:1,2013-03-03T03:00:00Z,28.9818,-94.9186,4.0,8.889600666,346.6670371,11.04,'11111222,11111222,11111222' 
TABS,ioos:station:wmo:42043:1,2013-03-03T03:30:00Z,28.9818,-94.9186,4.0,8.795504534,352.4869533,11.06,'11111222,11111222,11111222' 
TABS,ioos:station:wmo:42043:1,2013-03-03T04:00:00Z,28.9818,-94.9186,4.0,7.223496383,349.3899041,8.85,'11111222,11111222,11111222' 
TABS,ioos:station:wmo:42043:1,2013-03-03T04:30:00Z,28.9818,-94.9186,4.0,7.38677873,353.5482593,9.54,'11111222,11111222,11111222' 
TABS,ioos:station:wmo:42043:1,2013-03-03T05:00:00Z,28.9818,-94.9186,4.0,6.105014332,6.961819527,7.8,'11111222,11111222,11111222' 
TABS,ioos:station:wmo:42043:1,2013-03-03T05:30:00Z,28.9818,-94.9186,4.0,5.811652089,12.21846017,7.63,'11111222,11111222,11111222' 
TABS,ioos:station:wmo:42043:1,2013-03-03T06:00:00Z,28.9818,-94.9186,4.0,5.940244103,4.731380031,8.14,'11111222,11111222,11111222' 
TABS,ioos:station:wmo:42043:1,2013-03-03T06:30:00Z,28.9818,-94.9186,4.0,5.936707842,11.85859642,8.59,'11111222,11111222,11111222' 
TABS,ioos:station:wmo:42043:1,2013-03-03T07:00:00Z,28.9818,-94.9186,4.0,6.276822445,14.01386122,8.38,'11111222,11111222,11111222' 
TABS,ioos:station:wmo:42043:1,2013-03-03T07:30:00Z,28.9818,-94.9186,4.0,6.141180668,6.638754208,8.1,'11111222,11111222,11111222' 
TABS,ioos:station:wmo:42043:1,2013-03-03T08:00:00Z,28.9818,-94.9186,4.0,5.052771517,15.0261288,6.4,'11111222,11111222,11111222' 
TABS,ioos:station:wmo:42043:1,2013-03-03T08:30:00Z,28.9818,-94.9186,4.0,5.620756177,35.07523703,7.07,'11111222,11111222,11111222' 
TABS,ioos:station:wmo:42043:1,2013-03-03T09:00:00Z,28.9818,-94.9186,4.0,4.391446231,41.67657164,5.94,'11111222,11111222,11111222' 
TABS,ioos:station:wmo:42043:1,2013-03-03T09:30:00Z,28.9818,-94.9186,4.0,3.309289954,44.75483262,5.07,'11111222,11111222,11111222' 
TABS,ioos:station:wmo:42043:1,2013-03-03T10:00:00Z,28.9818,-94.9186,4.0,3.75800479,66.64088769,5.57,'11111222,11111222,11111222' 
TABS,ioos:station:wmo:42043:1,2013-03-03T10:30:00Z,28.9818,-94.9186,4.0,3.563846237,82.09685822,4.97,'11111222,11111222,11111222' 
TABS,ioos:station:wmo:42043:1,2013-03-03T11:00:00Z,28.9818,-94.9186,4.0,2.881388554,76.34919187,4.32,'11111222,11111222,11111222' 
TABS,ioos:station:wmo:42043:1,2013-03-03T11:30:00Z,28.9818,-94.9186,4.0,2.804924241,79.7312973,4.32,'11111222,11111222,11111222' 
TABS,ioos:station:wmo:42043:1,2013-03-03T12:00:00Z,28.9818,-94.9186,4.0,2.818315099,75.61821812,4.46,'11111222,11111222,11111222' 
TABS,ioos:station:wmo:42043:1,2013-03-03T12:30:00Z,28.9818,-94.9186,4.0,3.022002647,92.08642623,4.28,'11111222,11111222,11111222' 
TABS,ioos:station:wmo:42043:1,2013-03-03T13:00:00Z,28.9818,-94.9186,4.0,3.177955317,99.96660142,4.65,'11111222,11111222,11111222' 
TABS,ioos:station:wmo:42043:1,2013-03-03T13:30:00Z,28.9818,-94.9186,4.0,2.899948275,94.74764378,4.17,'11111222,11111222,11111222' 
TABS,ioos:station:wmo:42043:1,2013-03-03T14:00:00Z,28.9818,-94.9186,4.0,2.357710754,100.2617716,3.57,'11111222,11111222,11111222' 
TABS,ioos:station:wmo:42043:1,2013-03-03T14:30:00Z,28.9818,-94.9186,4.0,3.181980515,118.740149,4.37,'11111222,11111222,11111222' 
TABS,ioos:station:wmo:42043:1,2013-03-03T15:00:00Z,28.9818,-94.9186,4.0,3.40851874,115.3625286,4.8,'11111222,11111222,11111222' 
TABS,ioos:station:wmo:42043:1,2013-03-03T15:30:00Z,28.9818,-94.9186,4.0,3.582359558,115.9931878,4.54,'11111222,11111222,11111222' 
TABS,ioos:station:wmo:42043:1,2013-03-03T16:00:00Z,28.9818,-94.9186,4.0,3.671852394,133.1242505,5.07,'11111222,11111222,11111222' 
TABS,ioos:station:wmo:42043:1,2013-03-03T16:30:00Z,28.9818,-94.9186,4.0,3.182011942,134.7456701,4.5,'11111222,11111222,11111222' 
TABS,ioos:station:wmo:42043:1,2013-03-03T17:00:00Z,28.9818,-94.9186,4.0,3.077174028,148.0146388,4.33,'11111222,11111222,11111222' 
TABS,ioos:station:wmo:42043:1,2013-03-03T17:30:00Z,28.9818,-94.9186,4.0,3.515920932,140.4242476,5.11,'11111222,11111222,11111222' 
TABS,ioos:station:wmo:42043:1,2013-03-03T18:00:00Z,28.9818,-94.9186,4.0,4.008004491,149.4042725,5.3,'11111222,11111222,11111222' 
TABS,ioos:station:wmo:42043:1,2013-03-03T18:30:00Z,28.9818,-94.9186,4.0,3.489312253,157.7719631,4.68,'11111222,11111222,11111222' 
TABS,ioos:station:wmo:42043:1,2013-03-03T19:00:00Z,28.9818,-94.9186,4.0,4.052159918,158.8815359,5.75,'11111222,11111222,11111222' 
TABS,ioos:station:wmo:42043:1,2013-03-03T19:30:00Z,28.9818,-94.9186,4.0,4.773279795,164.0713398,6.08,'11111222,11111222,11111222' 
TABS,ioos:station:wmo:42043:1,2013-03-03T20:00:00Z,28.9818,-94.9186,4.0,5.100039216,169.8360646,6.71,'11111222,11111222,11111222' 
TABS,ioos:station:wmo:42043:1,2013-03-03T20:30:00Z,28.9818,-94.9186,4.0,5.180009653,179.8896012,6.54,'11111222,11111222,11111222' 
TABS,ioos:station:wmo:42043:1,2013-03-03T21:00:00Z,28.9818,-94.9186,4.0,5.502626646,170.0586033,7.43,'11111222,11111222,11111222' 
TABS,ioos:station:wmo:42043:1,2013-03-03T21:30:00Z,28.9818,-94.9186,4.0,5.766055844,175.7234533,7.07,'11111222,11111222,11111222' 
TABS,ioos:station:wmo:42043:1,2013-03-03T22:00:00Z,28.9818,-94.9186,4.0,6.060825026,179.0548236,7.54,'11111222,11111222,11111222' 
TABS,ioos:station:wmo:42043:1,2013-03-03T22:30:00Z,28.9818,-94.9186,4.0,5.805945229,184.2475303,7.03,'11111222,11111222,11111222' 
TABS,ioos:station:wmo:42043:1,2013-03-03T23:00:00Z,28.9818,-94.9186,4.0,5.696683246,190.0081669,7.44,'11111222,11111222,11111222' 
TABS,ioos:station:wmo:42043:1,2013-03-03T23:30:00Z,28.9818,-94.9186,4.0,6.798235065,186.0797852,8.18,'11111222,11111222,11111222' 
TABS,ioos:station:wmo:42043:1,2013-03-04T00:00:00Z,28.9818,-94.9186,4.0,6.618761213,187.6405994,8.27,'11111222,11111222,11111222' 
TABS,ioos:station:wmo:42043:1,2013-03-04T00:30:00Z,28.9818,-94.9186,4.0,6.966900315,182.5504861,8.82,'11111222,11111222,11111222' 
TABS,ioos:station:wmo:42043:1,2013-03-04T01:00:00Z,28.9818,-94.9186,4.0,7.154026838,181.9226991,9.14,'11111222,11111222,11111222' 
TABS,ioos:station:wmo:42043:1,2013-03-04T01:30:00Z,28.9818,-94.9186,4.0,7.074779148,182.1063148,9.3,'11111222,11111222,11111222' 
TABS,ioos:station:wmo:42043:1,2013-03-04T02:00:00Z,28.9818,-94.9186,4.0,7.076298467,176.1107414,9.07,'11111222,11111222,11111222' 
TABS,ioos:station:wmo:42043:1,2013-03-04T02:30:00Z,28.9818,-94.9186,4.0,7.161152142,175.595379,8.99,'11111222,11111222,11111222' 
TABS,ioos:station:wmo:42043:1,2013-03-04T03:00:00Z,28.9818,-94.9186,4.0,7.695017869,175.3787985,10.07,'11111222,11111222,11111222' 
TABS,ioos:station:wmo:42043:1,2013-03-04T03:30:00Z,28.9818,-94.9186,4.0,7.972960554,172.7949898,10.12,'11111222,11111222,11111222' 
TABS,ioos:station:wmo:42043:1,2013-03-04T04:00:00Z,28.9818,-94.9186,4.0,7.669035141,175.9625093,9.97,'11111222,11111222,11111222' 
TABS,ioos:station:wmo:42043:1,2013-03-04T04:30:00Z,28.9818,-94.9186,4.0,7.991601842,178.8530167,10.02,'11111222,11111222,11111222' 
TABS,ioos:station:wmo:42043:1,2013-03-04T05:00:00Z,28.9818,-94.9186,4.0,8.387401266,176.3088331,10.62,'11111222,11111222,11111222' 
TABS,ioos:station:wmo:42043:1,2013-03-04T05:30:00Z,28.9818,-94.9186,4.0,8.340893238,175.943968,10.52,'11111222,11111222,11111222' 
TABS,ioos:station:wmo:42043:1,2013-03-04T06:00:00Z,28.9818,-94.9186,4.0,8.318557567,174.4815292,10.18,'11111222,11111222,11111222' 
TABS,ioos:station:wmo:42043:1,2013-03-04T06:30:00Z,28.9818,-94.9186,4.0,8.211948612,175.8102125,10.75,'11111222,11111222,11111222' 
TABS,ioos:station:wmo:42043:1,2013-03-04T07:00:00Z,28.9818,-94.9186,4.0,7.934941714,177.9780013,9.87,'11111222,11111222,11111222' 
TABS,ioos:station:wmo:42043:1,2013-03-04T07:30:00Z,28.9818,-94.9186,4.0,7.820025575,179.8536746,9.95,'11111222,11111222,11111222' 
TABS,ioos:station:wmo:42043:1,2013-03-04T08:00:00Z,28.9818,-94.9186,4.0,7.681464704,181.1191238,9.56,'11111222,11111222,11111222' 
TABS,ioos:station:wmo:42043:1,2013-03-04T08:30:00Z,28.9818,-94.9186,4.0,7.847368986,182.4834146,9.37,'11111222,11111222,11111222' 
TABS,ioos:station:wmo:42043:1,2013-03-04T09:00:00Z,28.9818,-94.9186,4.0,8.02030548,179.5001365,10.29,'11111222,11111222,11111222' 
TABS,ioos:station:wmo:42043:1,2013-03-04T09:30:00Z,28.9818,-94.9186,4.0,7.840159437,179.6348095,10.16,'11111222,11111222,11111222' 
TABS,ioos:station:wmo:42043:1,2013-03-04T10:00:00Z,28.9818,-94.9186,4.0,7.344548999,184.6860993,9.48,'11111222,11111222,11111222' 
TABS,ioos:station:wmo:42043:1,2013-03-04T10:30:00Z,28.9818,-94.9186,4.0,6.990886925,184.4303348,8.98,'11111222,11111222,11111222' 
TABS,ioos:station:wmo:42043:1,2013-03-04T11:00:00Z,28.9818,-94.9186,4.0,7.455467792,183.6915878,9.35,'11111222,11111222,11111222' 
TABS,ioos:station:wmo:42043:1,2013-03-04T11:30:00Z,28.9818,-94.9186,4.0,7.73992894,185.0404809,9.58,'11111222,11111222,11111222' 
TABS,ioos:station:wmo:42043:1,2013-03-04T12:00:00Z,28.9818,-94.9186,4.0,7.973280379,183.3075869,9.59,'11111222,11111222,11111222' 
TABS,ioos:station:wmo:42043:1,2013-03-04T12:30:00Z,28.9818,-94.9186,4.0,8.171982624,181.2623338,10.2,'11111222,11111222,11111222' 
TABS,ioos:station:wmo:42043:1,2013-03-04T13:00:00Z,28.9818,-94.9186,4.0,8.283990584,184.3617729,10.2,'11111222,11111222,11111222' 
TABS,ioos:station:wmo:42043:1,2013-03-04T13:30:00Z,28.9818,-94.9186,4.0,8.247551152,190.4790132,10.03,'11111222,11111222,11111222' 
TABS,ioos:station:wmo:42043:1,2013-03-04T14:00:00Z,28.9818,-94.9186,4.0,7.882975327,193.3489064,9.92,'11111222,11111222,11111222' 
TABS,ioos:station:wmo:42043:1,2013-03-04T14:30:00Z,28.9818,-94.9186,4.0,7.460247985,192.6206218,9.18,'11111222,11111222,11111222' 
TABS,ioos:station:wmo:42043:1,2013-03-04T15:00:00Z,28.9818,-94.9186,4.0,7.021979778,194.7686572,9.03,'11111222,11111222,11111222' 
TABS,ioos:station:wmo:42043:1,2013-03-04T15:30:00Z,28.9818,-94.9186,4.0,7.019294836,191.8383933,8.78,'11111222,11111222,11111222' 
TABS,ioos:station:wmo:42043:1,2013-03-04T16:00:00Z,28.9818,-94.9186,4.0,7.106968411,189.4757642,8.62,'11111222,11111222,11111222' 
TABS,ioos:station:wmo:42043:1,2013-03-04T16:30:00Z,28.9818,-94.9186,4.0,6.752725376,194.7566948,8.54,'11111222,11111222,11111222' 
TABS,ioos:station:wmo:42043:1,2013-03-04T17:00:00Z,28.9818,-94.9186,4.0,5.988731084,201.5528452,7.48,'11111222,11111222,11111222' 
TABS,ioos:station:wmo:42043:1,2013-03-04T17:30:00Z,28.9818,-94.9186,4.0,5.785533683,203.6408741,7.45,'11111222,11111222,11111222' 
TABS,ioos:station:wmo:42043:1,2013-03-04T18:00:00Z,28.9818,-94.9186,4.0,4.390626379,211.5905407,5.63,'11111222,11111222,11111222' 
TABS,ioos:station:wmo:42043:1,2013-03-04T18:30:00Z,28.9818,-94.9186,4.0,4.651763107,198.1624673,6.28,'11111222,11111222,11111222' 